Location: Ikejouine
(32.5142°N, 5.4699°W)
Time: 14:58:05
(UTC+00:00)

CZ-4 R/B - Pass Details

Date: 09 April 2020
Orbit: 532 x 598 km, 97.8° (Epoch: 26 May)

Event Time Altitude Azimuth Distance (km) Brightness Sun altitude
Rises 19:29:28 0° 190° (S) 2,666 4.8 -9.4°
Reaches altitude 10° 19:31:47 10° 202° (SSW) 1,776 4.0 -9.9°
Maximum altitude 19:35:06 28° 262° (W) 1,020 3.5 -10.5°
Drops below altitude 10° 19:38:26 10° 323° (NW) 1,786 4.8 -11.2°
Sets 19:40:47 0° 335° (NNW) 2,683 5.5 -11.7°
